Regional Weather Roundup
Issued by NWS

Home | Current Version | Previous Version | Graphics & Text | Print | Product List | Glossary On
Versions: 1 2 3 4 5 6 7 8 9 10 11 12 13 14 15 16 17 18 19 20 21 22 23 24 25 26 27 28 29 30 31 32 33 34 35 36 37 38 39 40 41 42 43 44 45 46 47 48 49 50
000
ASUS43 KBIS 230302
RWRND

NORTH DAKOTA REGIONAL WEATHER ROUNDUP
NATIONAL WEATHER SERVICE BISMARCK ND
1000 PM CDT SUN OCT 22 2017

NOTE: "FAIR" INDICATES FEW OR NO CLOUDS BELOW 12,000 FEET WITH NO
SIGNIFICANT WEATHER AND/OR OBSTRUCTIONS TO VISIBILITY.


NDZ001>003-009>011-017-230400-
NORTHWEST NORTH DAKOTA

CITY           SKY/WX    TMP DP  RH WIND       PRES   REMARKS
WILLISTON      PTCLDY    54  39  58 W13       29.69R
MINOT          MOCLDY    56  40  55 SW15      29.59R
MINOT AFB      MOCLDY    52  40  62 W13       29.56R
$$

NDZ018>021-031>035-040>046-230400-
SOUTHWEST NORTH DAKOTA

CITY           SKY/WX    TMP DP  RH WIND       PRES   REMARKS
BISMARCK       PTCLDY    60  40  47 W18       29.70R
DICKINSON      PTCLDY    52  36  54 W23G33    29.76R
GARRISON         N/A     48  46  93 W12       29.64S
HETTINGER ARPT MOCLDY    47  41  80 W12       29.86R
$$

NDZ004>008-012>016-024-026-027-054-230400-
NORTHEAST NORTH DAKOTA

CITY           SKY/WX    TMP DP  RH WIND       PRES   REMARKS
GRAND FORKS    PTCLDY    52  39  61 SE9       29.61F
DEVILS LAKE    LGT RAIN  53  38  56 S12       29.58F
$$

NDZ022-023-025-028>030-036>039-047>053-230400-
SOUTHEAST NORTH DAKOTA

CITY           SKY/WX    TMP DP  RH WIND       PRES   REMARKS
FARGO          CLOUDY    58  32  37 S14       29.67F
JAMESTOWN      LGT RAIN  57  36  45 S16       29.64S
$$





USA.gov is the U.S. government's official web portal to all federal, state and local government web resources and services.